Wind_Speed
16 16 15 15 16 17 18 18 17 14 13 12 11 10 10 8 7 6 4 4 5 5 5 5 6 6 6 6 6 5 5 6 5 5 5 5 5 5 5 6 6 6 6 7 6 6 6 5 4
16 16 15 16 18 18 18 18 16 14 14 13 12 11 10 8 7 6 5 5 5 5 6 5 6 6 6 6 6 5 5 5 5 5 5 5 5 5 5 5 5 6 6 7 6 5 5 4 4
15 15 16 17 19 18 18 17 16 14 14 13 12 11 10 9 8 7 6 6 6 5 6 6 6 7 7 6 6 5 5 4 4 4 4 4 3 3 3 4 5 5 5 5 5 5 5 4 3
14 15 16 18 19 18 18 17 16 14 13 12 11 11 10 9 8 7 7 7 6 6 6 7 7 7 7 6 6 5 4 4 4 4 4 3 3 3 3 3 4 5 4 5 4 5 5 3 3
14 15 17 18 19 18 17 17 17 15 13 12 12 11 10 9 9 8 9 8 8 7 7 7 7 6 6 6 5 5 4 4 4 4 3 3 2 2 2 2 3 4 4 4 4 4 5 4 3
13 15 16 17 18 17 16 16 16 15 13 13 12 11 11 10 9 9 10 9 9 8 7 7 7 6 6 5 4 4 4 4 3 3 2 2 2 2 2 2 2 2 3 3 3 3 3 3 3
14 14 15 16 16 16 16 16 15 15 14 14 13 12 12 11 10 10 10 10 9 9 8 8 7 6 6 5 4 4 4 3 3 3 3 3 2 2 2 2 3 2 2 3 3 4 4 4 3
12 13 14 15 14 15 15 15 15 14 14 14 13 13 12 11 10 10 10 9 10 10 9 8 8 7 6 6 5 4 4 3 3 3 3 3 2 2 2 2 2 1 2 2 3 3 4 4 4
11 13 14 14 13 14 14 14 14 14 13 14 14 13 12 11 11 10 9 9 10 10 9 9 9 8 6 6 5 5 4 3 2 3 3 2 2 2 2 1 0 0 1 1 2 4 4 4 4
11 12 13 13 13 14 14 14 14 14 13 14 14 13 13 12 12 11 10 10 10 9 9 9 9 8 7 6 5 5 5 4 3 3 3 3 3 2 2 2 1 1 0 0 2 4 4 4 4
9 10 11 13 13 13 14 14 14 14 13 14 13 13 13 13 12 12 11 11 10 10 9 9 9 8 8 7 6 6 5 5 4 4 4 4 4 3 3 3 2 1 0 0 2 3 3 3 3
7 9 11 11 12 13 13 14 14 13 13 14 14 13 13 13 13 13 12 11 10 10 10 9 8 8 7 7 7 6 6 5 5 5 5 5 4 4 4 4 3 2 2 1 1 3 3 2 3
6 7 9 10 11 11 12 12 13 12 12 14 14 12 11 12 13 13 12 11 10 10 9 9 8 8 7 7 7 7 6 6 5 5 5 5 4 5 5 5 4 4 4 3 2 1 2 2 1
6 6 8 10 11 11 11 11 12 12 12 12 13 12 11 12 12 12 11 11 10 9 9 9 8 8 7 7 7 7 6 6 6 6 6 5 5 5 5 5 5 5 4 3 3 2 1 1 1
5 5 8 9 10 10 10 9 11 11 11 11 12 12 11 11 11 11 11 10 10 10 9 9 9 8 8 7 7 7 7 6 6 6 6 5 6 6 6 6 6 5 4 3 3 2 2 2 1
4 5 7 9 9 10 9 9 9 11 10 9 10 10 10 10 10 10 10 10 10 9 9 9 9 9 8 8 7 7 7 6 6 6 5 6 6 6 6 6 6 5 5 3 2 2 2 2 2
3 3 6 6 7 9 9 9 9 10 10 10 10 9 9 10 10 9 9 9 10 10 9 9 9 9 8 8 8 7 7 7 7 6 5 6 5 5 5 5 5 5 4 4 2 2 3 2 2
3 2 3 4 5 7 7 8 8 8 9 10 10 10 9 9 9 9 9 9 9 9 9 9 9 9 8 7 7 8 7 7 7 6 6 6 6 5 5 5 4 4 5 5 3 3 3 3 3
5 4 2 2 3 5 6 6 6 7 8 9 9 9 9 9 9 9 9 9 9 8 8 8 9 8 8 7 7 7 7 7 7 7 6 6 6 5 5 4 4 4 5 5 5 4 4 3 4
6 5 3 2 1 4 5 4 5 4 6 8 8 8 9 9 9 9 9 9 8 8 8 7 7 8 7 7 6 6 6 5 6 7 6 6 6 6 5 5 5 5 5 5 5 5 4 4 4
8 6 5 4 4 5 6 3 4 4 5 7 7 8 8 8 8 8 9 9 8 8 7 7 6 7 7 7 6 5 5 5 6 6 6 6 6 6 6 6 6 5 5 5 5 5 4 4 4
9 7 6 6 6 6 5 2 3 3 4 5 7 7 7 7 8 8 8 8 8 8 7 7 6 6 6 6 6 5 6 6 6 5 6 6 5 5 5 6 6 6 5 5 5 5 5 5 5
10 9 9 8 9 7 5 4 3 4 4 4 5 6 7 7 7 7 7 8 8 8 7 7 6 5 6 6 6 6 6 5 5 4 4 5 5 5 5 5 6 6 5 5 5 5 5 6 5
13 12 11 10 10 8 7 7 5 5 5 4 5 5 6 6 6 6 6 7 7 7 7 6 6 5 5 5 6 6 6 5 5 4 4 4 4 5 5 5 5 5 5 5 5 5 5 5 5
16 15 14 12 11 9 8 8 6 4 4 5 5 4 5 6 6 6 6 6 6 6 6 5 5 4 4 4 5 5 5 5 4 4 4 4 4 5 5 5 5 5 5 6 7 6 6 6 6
16 16 15 13 10 9 10 11 9 5 4 5 5 3 4 5 6 6 6 6 5 5 5 5 5 4 3 3 3 4 4 4 4 4 4 4 4 5 5 6 6 6 6 7 7 7 7 7 7
16 15 15 13 12 13 14 13 10 8 6 6 5 4 3 5 5 5 6 6 5 5 5 5 4 4 4 3 3 3 4 4 4 4 4 4 5 5 6 6 7 7 7 8 8 8 8 7 7
17 16 16 16 15 15 15 13 10 8 8 7 6 6 5 5 5 5 5 5 5 6 5 5 5 5 5 4 4 4 4 5 5 5 5 6 6 6 7 7 7 8 8 8 8 8 8 8 8
19 18 19 19 19 18 17 15 12 10 9 9 8 7 7 7 6 7 6 6 6 6 6 6 6 6 6 6 5 5 6 6 7 7 7 8 8 8 8 8 8 8 9 8 8 8 8 8 8
20 20 19 21 20 20 19 16 14 12 11 11 11 9 8 9 8 8 8 8 7 8 8 7 7 7 7 7 7 8 8 8 8 9 9 9 9 9 9 9 8 8 8 8 8 9 9 9 10
Wind_Direction
75 69 63 57 51 49 47 48 50 51 54 53 50 51 55 53 55 62 73 87 82 84 87 94 102 102 98 99 103 107 117 122 122 119 122 124 129 129 133 139 145 144 145 148 155 160 161 168 171
76 67 61 56 50 45 45 46 48 51 51 53 50 51 52 52 57 63 77 78 82 89 88 97 103 97 94 94 97 103 111 113 119 118 123 128 131 128 132 140 146 144 143 155 160 158 156 159 167
72 61 58 53 48 42 40 41 44 44 45 47 48 50 52 54 58 68 81 81 83 88 91 95 92 94 93 92 95 99 104 103 103 106 119 122 128 135 147 156 155 154 156 161 169 163 162 163 172
67 55 53 50 45 40 37 39 45 46 43 45 45 46 50 56 60 69 79 81 79 89 94 93 86 84 89 90 90 91 94 96 99 98 108 115 122 135 149 162 168 169 177 182 186 176 171 168 176
64 53 49 48 44 41 35 35 39 42 43 45 44 44 50 55 62 70 78 79 84 91 91 93 86 83 89 86 81 85 89 90 91 90 98 107 116 127 163 157 178 185 187 189 190 181 189 194 196
63 53 46 45 45 44 39 34 35 36 39 41 45 46 50 59 65 69 74 71 76 81 89 93 87 82 85 89 85 78 79 80 83 84 87 96 100 118 143 155 156 181 196 200 207 200 195 201 196
68 55 48 47 44 43 41 35 35 38 39 41 45 50 55 65 69 69 70 70 71 78 84 88 84 82 85 86 83 77 71 72 76 77 81 88 93 112 127 132 119 158 184 193 208 208 202 201 190
69 54 52 49 42 41 41 36 37 39 40 43 46 49 55 62 67 64 63 69 74 78 78 79 78 79 84 84 85 82 76 71 73 75 83 88 92 110 124 142 112 120 164 186 201 211 207 205 199
71 59 58 56 46 42 42 38 39 40 44 47 47 46 51 59 65 66 68 72 74 75 78 78 73 76 81 83 84 80 78 71 74 81 85 86 88 102 114 116 107 141 155 176 198 208 201 210 204
72 62 59 58 52 44 44 43 42 44 43 44 47 48 51 55 61 66 70 73 75 73 73 73 70 73 76 75 79 76 73 71 76 83 82 85 85 89 98 86 79 45 314 222 190 197 206 208 209
75 67 64 57 49 46 44 47 47 44 42 45 47 51 52 55 58 61 67 70 73 73 70 66 65 69 69 70 73 71 68 67 68 70 72 76 83 82 80 80 75 49 11 243 194 191 205 209 214
81 77 70 60 49 41 44 48 49 46 44 48 49 53 56 58 58 60 65 69 69 67 67 64 63 64 65 65 67 66 64 68 70 73 74 74 80 89 81 79 65 58 52 61 181 206 214 215 206
92 78 73 62 53 42 40 48 53 53 51 50 51 50 53 59 59 60 62 66 67 62 58 56 56 56 60 60 61 64 60 65 74 80 76 78 82 87 79 72 69 58 57 71 91 148 187 175 194
96 82 73 63 51 40 36 45 50 54 53 48 46 48 52 55 59 59 60 61 61 58 53 51 52 54 56 61 62 61 63 71 78 80 81 84 80 76 72 70 65 61 60 70 88 88 80 92 70
95 78 78 64 45 38 31 36 48 53 50 43 48 48 48 52 55 57 58 56 53 53 52 49 53 53 53 61 64 64 69 76 74 74 76 79 80 73 69 68 66 65 64 74 79 78 62 52 42
107 78 69 56 44 38 26 24 39 56 53 43 46 48 48 48 50 54 54 50 49 50 50 53 55 53 53 59 65 65 66 68 71 71 74 74 72 72 68 66 64 62 58 57 61 61 52 50 36
129 72 66 53 41 29 19 20 33 46 47 44 47 45 44 45 47 47 47 49 49 50 51 54 56 53 54 58 61 62 64 64 65 66 68 69 68 66 57 58 54 52 50 39 35 45 30 33 27
164 114 88 54 42 19 17 22 25 38 40 40 42 45 43 43 43 41 41 46 48 49 50 53 53 50 53 56 58 62 63 63 64 65 67 67 67 61 53 53 55 49 40 30 21 7 5 14 7
178 171 156 77 30 356 4 10 15 28 36 41 39 41 41 41 40 39 38 40 45 46 46 49 48 49 55 58 59 62 65 64 63 63 68 68 66 60 49 46 50 40 29 27 25 13 6 1 1
186 200 216 202 283 318 333 343 354 20 32 40 41 39 41 40 37 35 35 34 37 41 42 47 47 45 51 53 55 62 66 63 59 61 67 70 64 60 58 54 52 40 28 21 17 14 12 1 357
200 216 224 233 250 272 289 310 351 15 20 38 39 37 42 36 34 33 32 32 34 38 39 43 47 44 45 47 52 62 68 65 61 62 65 66 60 54 53 54 52 45 35 26 12 7 4 358 350
206 211 218 227 239 255 270 297 352 4 14 27 32 33 35 31 27 27 29 32 32 29 31 34 40 41 40 45 51 57 60 61 55 57 58 57 52 47 45 48 43 35 31 17 7 2 359 353 352
204 213 218 226 226 242 254 273 320 322 347 11 28 26 22 18 20 22 24 27 24 23 24 24 28 30 31 40 47 49 52 53 49 47 45 45 45 40 35 37 29 23 15 7 7 6 3 1 354
207 210 214 222 231 238 248 267 289 310 346 354 7 16 15 14 18 16 12 13 14 16 19 19 22 28 33 36 41 46 49 52 50 46 36 37 34 28 23 16 8 6 1 358 356 357 355 1 0
207 211 214 222 232 235 240 257 276 298 334 341 347 355 358 4 6 6 3 5 9 11 11 17 21 25 28 32 36 39 41 44 41 32 25 23 16 11 6 358 353 355 352 353 349 346 351 350 346
208 214 220 224 228 237 241 254 262 271 306 309 313 317 336 342 347 349 348 350 357 2 1 5 11 14 13 16 21 27 29 29 25 20 14 6 353 348 346 345 343 343 346 348 345 340 342 342 337
214 221 225 228 236 246 252 259 255 259 273 282 285 286 315 326 329 332 332 335 339 343 339 342 351 355 355 348 350 357 3 3 0 355 349 343 335 337 335 335 332 334 338 340 336 338 338 333 329
220 224 228 235 239 248 254 259 260 265 267 273 280 288 297 309 310 309 318 321 322 326 323 326 332 335 334 331 330 332 334 334 333 330 328 323 320 322 323 323 318 323 331 334 332 330 328 324 320
219 223 228 235 245 252 256 259 257 256 262 271 274 285 288 290 295 296 302 306 309 311 314 320 322 322 322 319 317 318 313 313 313 314 317 313 309 311 314 313 308 310 321 324 324 326 324 323 322
223 224 227 234 241 250 256 260 262 256 260 268 274 277 278 283 286 294 296 299 299 299 298 299 308 313 315 314 313 309 303 302 302 302 305 310 308 305 303 304 302 300 308 312 315 318 317 317 317
Height
5898 5896 5896 5896 5895 5893 5891 5890 5890 5890 5889 5888 5887 5887 5887 5887 5887 5889 5886 5884 5884 5884 5884 5884 5884 5885 5885 5885 5886 5885 5885 5885 5885 5885 5885 5885 5885 5885 5885 5886 5886 5886 5886 5887 5888 5889 5889 5889 5890
5900 5899 5899 5898 5896 5894 5893 5892 5892 5891 5891 5889 5889 5888 5888 5887 5886 5886 5885 5884 5884 5884 5884 5885 5885 5885 5886 5886 5886 5886 5886 5886 5886 5886 5886 5886 5886 5886 5886 5886 5887 5887 5887 5888 5888 5889 5889 5890 5890
5901 5900 5900 5899 5897 5896 5895 5894 5893 5892 5892 5891 5890 5890 5889 5888 5887 5886 5885 5885 5885 5885 5886 5886 5886 5886 5886 5887 5887 5887 5887 5887 5887 5887 5887 5887 5886 5886 5886 5886 5887 5887 5888 5888 5888 5889 5890 5890 5890
5904 5903 5902 5900 5898 5897 5896 5895 5894 5894 5893 5892 5891 5890 5889 5888 5887 5886 5885 5886 5886 5886 5886 5886 5886 5887 5887 5888 5888 5888 5888 5888 5888 5888 5888 5887 5887 5886 5886 5886 5887 5887 5888 5888 5888 5889 5889 5890 5891
5905 5904 5902 5901 5900 5899 5898 5897 5896 5896 5895 5893 5892 5891 5890 5889 5888 5887 5887 5887 5887 5887 5887 5887 5888 5888 5888 5889 5889 5889 5888 5888 5888 5888 5888 5888 5888 5887 5887 5886 5887 5887 5887 5887 5888 5889 5889 5890 5890
5907 5905 5904 5903 5902 5901 5900 5899 5898 5897 5896 5895 5893 5892 5891 5890 5889 5889 5888 5888 5888 5888 5889 5889 5889 5889 5889 5889 5889 5889 5889 5889 5889 5889 5888 5888 5888 5888 5887 5887 5887 5887 5886 5887 5887 5888 5889 5889 5889
5908 5907 5905 5904 5903 5903 5903 5901 5900 5899 5898 5897 5895 5894 5892 5892 5891 5890 5890 5890 5890 5890 5890 5890 5890 5890 5890 5890 5890 5890 5890 5889 5889 5889 5889 5888 5888 5888 5888 5887 5887 5886 5886 5886 5887 5887 5888 5889 5889
5908 5908 5907 5906 5906 5905 5904 5903 5901 5901 5899 5898 5896 5895 5894 5894 5893 5892 5891 5891 5891 5891 5891 5891 5891 5891 5891 5891 5891 5891 5890 5890 5889 5889 5889 5888 5888 5888 5888 5888 5887 5887 5886 5886 5886 5887 5887 5888 5888
5910 5910 5908 5908 5908 5907 5906 5905 5903 5902 5901 5899 5898 5897 5896 5895 5894 5893 5892 5892 5892 5892 5892 5892 5892 5892 5892 5891 5891 5891 5891 5890 5890 5889 5889 5889 5888 5888 5888 5888 5887 5887 5886 5886 5886 5886 5886 5886 5887
5911 5911 5911 5910 5909 5909 5908 5906 5905 5903 5902 5901 5900 5898 5897 5896 5895 5895 5894 5894 5893 5893 5893 5893 5893 5892 5892 5892 5892 5891 5891 5891 5890 5890 5889 5889 5889 5888 5888 5888 5887 5886 5886 5885 5885 5885 5886 5886 5886
5913 5912 5912 5912 5911 5910 5909 5908 5906 5905 5904 5903 5902 5901 5899 5897 5897 5897 5896 5896 5895 5895 5894 5894 5893 5893 5893 5892 5892 5892 5891 5891 5891 5890 5890 5889 5889 5888 5888 5887 5887 5886 5885 5884 5884 5884 5885 5886 5886
5914 5914 5913 5913 5912 5912 5911 5910 5908 5907 5906 5905 5904 5902 5901 5900 5899 5898 5898 5897 5897 5897 5896 5895 5894 5893 5893 5893 5893 5892 5892 5891 5891 5890 5890 5890 5889 5889 5888 5887 5887 5885 5884 5882 5881 5882 5884 5885 5885
5915 5915 5914 5914 5914 5913 5912 5911 5910 5909 5908 5906 5905 5904 5903 5902 5901 5900 5900 5899 5899 5898 5897 5897 5895 5895 5894 5894 5893 5892 5892 5892 5891 5891 5890 5890 5890 5889 5889 5888 5887 5886 5885 5883 5882 5883 5884 5885 5885
5916 5916 5915 5915 5915 5914 5914 5913 5912 5910 5909 5908 5907 5906 5905 5903 5902 5902 5901 5901 5900 5899 5898 5897 5897 5896 5895 5895 5894 5893 5893 5892 5892 5892 5891 5890 5890 5890 5889 5889 5888 5887 5886 5885 5885 5885 5885 5885 5885
5917 5917 5916 5916 5916 5915 5915 5914 5913 5912 5910 5910 5909 5908 5906 5905 5904 5904 5903 5902 5901 5900 5899 5898 5897 5896 5895 5895 5894 5894 5893 5893 5893 5892 5891 5891 5891 5890 5890 5890 5889 5888 5888 5887 5886 5886 5886 5886 5886
5918 5918 5918 5917 5917 5916 5918 5916 5914 5913 5912 5911 5910 5909 5908 5907 5906 5905 5904 5903 5902 5901 5900 5899 5898 5897 5896 5895 5894 5894 5894 5894 5893 5893 5892 5891 5891 5891 5891 5890 5890 5889 5888 5887 5887 5887 5886 5886 5885
5918 5918 5918 5918 5917 5917 5917 5916 5914 5913 5913 5912 5911 5910 5909 5908 5907 5906 5905 5904 5903 5902 5901 5900 5899 5898 5897 5896 5895 5895 5895 5895 5894 5893 5893 5892 5892 5892 5891 5890 5890 5889 5889 5888 5887 5887 5886 5886 5885
5918 5917 5918 5918 5918 5917 5917 5916 5915 5914 5913 5913 5912 5911 5910 5909 5908 5907 5906 5905 5904 5903 5902 5901 5900 5899 5898 5897 5896 5896 5896 5895 5895 5894 5893 5893 5892 5892 5891 5891 5890 5890 5889 5888 5887 5887 5886 5886 5885
5917 5917 5917 5918 5918 5917 5917 5916 5916 5915 5915 5914 5913 5912 5911 5910 5909 5908 5907 5906 5905 5904 5903 5902 5901 5900 5899 5898 5897 5897 5896 5896 5895 5895 5894 5894 5893 5892 5891 5891 5890 5890 5889 5888 5887 5887 5886 5886 5885
5916 5916 5917 5917 5918 5917 5917 5917 5916 5915 5915 5915 5913 5912 5911 5911 5910 5909 5908 5907 5905 5905 5904 5903 5902 5901 5899 5898 5898 5897 5897 5897 5896 5895 5895 5894 5893 5893 5892 5891 5890 5890 5889 5888 5887 5886 5886 5885 5885
5914 5915 5916 5917 5917 5917 5917 5916 5915 5915 5915 5915 5914 5913 5912 5911 5911 5910 5909 5907 5906 5905 5905 5904 5903 5902 5900 5899 5898 5898 5898 5897 5897 5896 5895 5895 5894 5893 5892 5891 5891 5890 5889 5888 5887 5886 5886 5885 5884
5912 5913 5914 5915 5916 5916 5916 5915 5915 5915 5914 5914 5914 5913 5912 5912 5911 5910 5909 5908 5907 5906 5905 5904 5903 5902 5901 5900 5899 5899 5898 5898 5897 5897 5896 5895 5894 5893 5893 5892 5891 5890 5889 5888 5887 5886 5885 5884 5883
5910 5910 5911 5912 5913 5914 5914 5914 5915 5914 5914 5914 5913 5913 5912 5912 5911 5910 5910 5909 5907 5906 5905 5904 5904 5903 5902 5901 5900 5899 5899 5898 5897 5897 5896 5896 5895 5894 5893 5892 5891 5890 5889 5888 5887 5886 5885 5884 5882
5908 5908 5909 5910 5911 5912 5913 5913 5914 5913 5913 5913 5913 5912 5912 5912 5911 5910 5909 5909 5908 5907 5906 5905 5904 5903 5902 5901 5901 5900 5899 5899 5898 5897 5896 5896 5895 5894 5893 5892 5891 5889 5888 5887 5886 5885 5884 5883 5882
5905 5906 5907 5908 5908 5910 5911 5911 5912 5912 5912 5911 5911 5912 5911 5911 5910 5909 5909 5908 5908 5907 5906 5905 5904 5903 5902 5901 5901 5900 5900 5899 5898 5897 5897 5896 5895 5894 5893 5892 5890 5889 5888 5887 5885 5884 5883 5882 5881
5901 5903 5905 5906 5906 5908 5908 5908 5911 5910 5909 5909 5909 5910 5910 5910 5909 5908 5908 5907 5907 5906 5905 5904 5904 5903 5902 5901 5901 5900 5900 5899 5898 5898 5897 5896 5895 5894 5893 5891 5890 5888 5887 5886 5884 5883 5882 5881 5880
5898 5900 5901 5903 5903 5905 5905 5907 5908 5907 5907 5907 5907 5908 5908 5908 5908 5907 5907 5906 5906 5905 5905 5904 5903 5902 5902 5901 5900 5900 5899 5899 5898 5897 5896 5895 5894 5893 5892 5890 5889 5887 5886 5885 5883 5882 5881 5880 5878
5896 5897 5899 5900 5900 5901 5902 5903 5905 5904 5904 5905 5905 5905 5906 5906 5906 5905 5905 5905 5904 5904 5903 5903 5902 5901 5901 5900 5900 5899 5898 5897 5897 5896 5895 5894 5893 5892 5890 5889 5887 5886 5884 5883 5882 5881 5879 5878 5876
5892 5893 5894 5896 5897 5898 5898 5901 5901 5902 5901 5902 5902 5902 5903 5904 5904 5903 5903 5903 5903 5903 5902 5901 5901 5900 5899 5899 5898 5898 5897 5896 5895 5894 5893 5892 5891 5890 5888 5887 5885 5884 5882 5881 5880 5878 5877 5875 5874
5887 5889 5891 5893 5894 5894 5895 5899 5897 5898 5898 5898 5898 5898 5899 5900 5900 5900 5901 5901 5901 5901 5900 5899 5899 5898 5898 5897 5896 5896 5895 5894 5893 5892 5891 5890 5889 5888 5886 5885 5883 5882 5880 5879 5878 5876 5874 5873 5872